When you browse on this site, cookies collect data to enhance your experience and personalize the content and advertising you see.
Visit our Privacy Policy to learn more. By continuing to use the site, you agree to this use of cookies and data.
  • En España
  • Lista de países
  • Para 7 días
  • Temperatura del agua
  • El tiempo en el mapa
  • Informadores
  • user-avatar
    Iniciar sesión

    Tiempo cada hora Luksor

    Hoy, 22 Octubre, Martes

    Tiempo Temperatura Precipitaciones Viento Presión Humedad
    00:00 +26°C° 0 mm 1 mps 749 mmHg 30%
    01:00 +26°C° 0 mm 1 mps 749 mmHg 31%
    02:00 +25°C° 0 mm 1 mps 749 mmHg 33%
    03:00 +25°C° 0 mm 1 mps 749 mmHg 34%
    04:00 +25°C° 0 mm 1 mps 749 mmHg 35%
    05:00 +25°C° 0 mm 1 mps 749 mmHg 37%
    06:00 +27°C° 0 mm 1 mps 749 mmHg 33%
    07:00 +29°C° 0 mm 1 mps 750 mmHg 29%
    08:00 +31°C° 0 mm 1 mps 750 mmHg 27%
    09:00 +34°C° 0 mm 2 mps 750 mmHg 24%
    10:00 +36°C° 0 mm 2 mps 750 mmHg 22%
    11:00 +37°C° 0 mm 3 mps 750 mmHg 19%
    12:00 +38°C° 0 mm 3 mps 749 mmHg 18%
    13:00 +39°C° 0 mm 3 mps 748 mmHg 16%
    14:00 +41°C° 0 mm 4 mps 748 mmHg 15%
    15:00 +38°C° 0 mm 4 mps 748 mmHg 16%
    16:00 +37°C° 0 mm 4 mps 748 mmHg 18%
    17:00 +36°C° 0 mm 4 mps 748 mmHg 19%
    18:00 +35°C° 0 mm 4 mps 748 mmHg 22%
    19:00 +33°C° 0 mm 4 mps 748 mmHg 24%
    20:00 +30°C° 0 mm 4 mps 749 mmHg 27%
    21:00 +30°C° 0 mm 4 mps 749 mmHg 28%
    22:00 +29°C° 0 mm 4 mps 749 mmHg 28%
    23:00 +28°C° 0 mm 4 mps 749 mmHg 29%

    Mañana, 23 Octubre, Miércoles

    Tiempo Temperatura Precipitaciones Viento Presión Humedad
    00:00 +27°C° 0 mm 3 mps 749 mmHg 32%
    01:00 +26°C° 0 mm 2 mps 749 mmHg 34%
    02:00 +25°C° 0 mm 1 mps 749 mmHg 37%
    03:00 +25°C° 0 mm 1 mps 749 mmHg 40%
    04:00 +24°C° 0 mm 1 mps 749 mmHg 43%
    05:00 +23°C° 0 mm 1 mps 749 mmHg 46%
    06:00 +25°C° 0 mm 1 mps 750 mmHg 43%
    07:00 +27°C° 0 mm 2 mps 750 mmHg 39%
    08:00 +29°C° 0 mm 2 mps 750 mmHg 36%
    09:00 +30°C° 0 mm 3 mps 750 mmHg 33%
    10:00 +33°C° 0 mm 4 mps 750 mmHg 31%
    11:00 +34°C° 0 mm 5 mps 750 mmHg 28%
    12:00 +35°C° 0 mm 5 mps 749 mmHg 26%
    13:00 +36°C° 0 mm 5 mps 749 mmHg 23%
    14:00 +37°C° 0 mm 5 mps 748 mmHg 21%
    15:00 +35°C° 0 mm 5 mps 748 mmHg 23%
    16:00 +34°C° 0 mm 5 mps 748 mmHg 24%
    17:00 +33°C° 0 mm 5 mps 748 mmHg 25%
    18:00 +32°C° 0 mm 5 mps 749 mmHg 27%
    19:00 +29°C° 0 mm 5 mps 749 mmHg 28%
    20:00 +28°C° 0 mm 5 mps 750 mmHg 30%
    21:00 +27°C° 0 mm 5 mps 750 mmHg 30%
    22:00 +27°C° 0 mm 5 mps 750 mmHg 30%
    23:00 +26°C° 0 mm 5 mps 750 mmHg 30%

    Pasado mañana, 24 Octubre, Jueves

    Tiempo Temperatura Precipitaciones Viento Presión Humedad
    00:00 +25°C° 0 mm 4 mps 750 mmHg 32%
    01:00 +24°C° 0 mm 3 mps 750 mmHg 33%
    02:00 +23°C° 0 mm 2 mps 750 mmHg 34%
    03:00 +21°C° 0 mm 2 mps 750 mmHg 33%
    04:00 +21°C° 0 mm 2 mps 750 mmHg 33%
    05:00 +21°C° 0 mm 2 mps 750 mmHg 33%
    06:00 +23°C° 0 mm 2 mps 750 mmHg 30%
    07:00 +25°C° 0 mm 2 mps 751 mmHg 27%
    08:00 +27°C° 0 mm 2 mps 751 mmHg 23%
    09:00 +28°C° 0 mm 3 mps 751 mmHg 22%
    10:00 +30°C° 0 mm 3 mps 751 mmHg 20%
    11:00 +33°C° 0 mm 4 mps 751 mmHg 19%
    12:00 +33°C° 0 mm 4 mps 750 mmHg 17%
    13:00 +34°C° 0 mm 5 mps 750 mmHg 16%
    14:00 +34°C° 0 mm 5 mps 749 mmHg 15%
    15:00 +33°C° 0 mm 5 mps 749 mmHg 16%
    16:00 +32°C° 0 mm 4 mps 749 mmHg 17%
    17:00 +30°C° 0 mm 4 mps 749 mmHg 19%
    18:00 +28°C° 0 mm 4 mps 750 mmHg 22%
    19:00 +27°C° 0 mm 4 mps 750 mmHg 25%
    20:00 +25°C° 0 mm 3 mps 751 mmHg 29%
    21:00 +25°C° 0 mm 3 mps 751 mmHg 31%
    22:00 +24°C° 0 mm 3 mps 751 mmHg 34%
    23:00 +22°C° 0 mm 3 mps 751 mmHg 36%

    25 Octubre, Viernes

    Tiempo Temperatura Precipitaciones Viento Presión Humedad
    00:00 +22°C° 0 mm 3 mps 751 mmHg 39%
    01:00 +21°C° 0 mm 2 mps 751 mmHg 41%
    02:00 +20°C° 0 mm 2 mps 751 mmHg 44%
    03:00 +20°C° 0 mm 2 mps 751 mmHg 46%
    04:00 +20°C° 0 mm 1 mps 751 mmHg 47%
    05:00 +20°C° 0 mm 1 mps 751 mmHg 49%
    06:00 +22°C° 0 mm 1 mps 751 mmHg 44%
    07:00 +24°C° 0 mm 2 mps 751 mmHg 39%
    08:00 +26°C° 0 mm 2 mps 752 mmHg 34%
    09:00 +27°C° 0 mm 3 mps 752 mmHg 31%
    10:00 +29°C° 0 mm 3 mps 752 mmHg 27%
    11:00 +32°C° 0 mm 4 mps 751 mmHg 24%
    12:00 +33°C° 0 mm 4 mps 751 mmHg 22%
    13:00 +33°C° 0 mm 5 mps 750 mmHg 21%
    14:00 +34°C° 0 mm 5 mps 750 mmHg 19%
    15:00 +33°C° 0 mm 5 mps 750 mmHg 21%
    16:00 +32°C° 0 mm 4 mps 750 mmHg 22%
    17:00 +30°C° 0 mm 4 mps 750 mmHg 24%
    18:00 +28°C° 0 mm 4 mps 750 mmHg 27%
    19:00 +27°C° 0 mm 3 mps 751 mmHg 31%
    20:00 +26°C° 0 mm 3 mps 751 mmHg 34%
    21:00 +25°C° 0 mm 3 mps 751 mmHg 36%
    22:00 +24°C° 0 mm 3 mps 751 mmHg 39%
    23:00 +23°C° 0 mm 2 mps 751 mmHg 42%

    26 Octubre, Sábado

    Tiempo Temperatura Precipitaciones Viento Presión Humedad
    00:00 +23°C° 0 mm 2 mps 751 mmHg 44%
    01:00 +21°C° 0 mm 2 mps 751 mmHg 46%
    02:00 +21°C° 0 mm 1 mps 751 mmHg 48%
    03:00 +21°C° 0 mm 1 mps 751 mmHg 49%
    04:00 +19°C° 0 mm 2 mps 751 mmHg 50%
    05:00 +19°C° 0 mm 2 mps 751 mmHg 50%
    06:00 +21°C° 0 mm 2 mps 752 mmHg 46%
    07:00 +24°C° 0 mm 2 mps 752 mmHg 42%
    08:00 +25°C° 0 mm 2 mps 753 mmHg 38%
    09:00 +27°C° 0 mm 3 mps 752 mmHg 36%
    10:00 +29°C° 0 mm 4 mps 752 mmHg 34%
    11:00 +30°C° 0 mm 5 mps 752 mmHg 32%
    12:00 +32°C° 0 mm 5 mps 751 mmHg 30%
    13:00 +33°C° 0 mm 6 mps 751 mmHg 28%
    14:00 +34°C° 0 mm 6 mps 750 mmHg 26%
    15:00 +33°C° 0 mm 6 mps 750 mmHg 28%
    16:00 +32°C° 0 mm 6 mps 750 mmHg 30%
    17:00 +29°C° 0 mm 5 mps 750 mmHg 32%
    18:00 +28°C° 0 mm 5 mps 750 mmHg 37%
    19:00 +27°C° 0 mm 5 mps 750 mmHg 41%
    20:00 +26°C° 0 mm 5 mps 751 mmHg 46%
    21:00 +25°C° 0 mm 4 mps 751 mmHg 51%
    22:00 +24°C° 0 mm 3 mps 751 mmHg 56%
    23:00 +23°C° 0 mm 2 mps 751 mmHg 61%

    27 Octubre, Domingo

    Tiempo Temperatura Precipitaciones Viento Presión Humedad
    00:00 +21°C° 0 mm 2 mps 751 mmHg 64%
    01:00 +21°C° 0 mm 2 mps 751 mmHg 66%
    02:00 +20°C° 0 mm 2 mps 750 mmHg 68%
    03:00 +20°C° 0 mm 2 mps 750 mmHg 70%
    04:00 +20°C° 0 mm 2 mps 750 mmHg 72%
    05:00 +19°C° 0 mm 2 mps 751 mmHg 74%
    06:00 +20°C° 0 mm 2 mps 751 mmHg 68%
    07:00 +23°C° 0 mm 2 mps 751 mmHg 63%
    08:00 +24°C° 0 mm 2 mps 752 mmHg 57%
    09:00 +26°C° 0 mm 2 mps 751 mmHg 51%
    10:00 +28°C° 0 mm 2 mps 751 mmHg 44%
    11:00 +29°C° 0 mm 2 mps 751 mmHg 38%
    12:00 +30°C° 0 mm 2 mps 750 mmHg 34%
    13:00 +31°C° 0 mm 2 mps 750 mmHg 30%
    14:00 +34°C° 0 mm 2 mps 749 mmHg 26%
    15:00 +32°C° 0 mm 2 mps 749 mmHg 27%
    16:00 +31°C° 0 mm 2 mps 749 mmHg 28%
    17:00 +29°C° 0 mm 2 mps 749 mmHg 29%
    18:00 +28°C° 0 mm 2 mps 749 mmHg 31%
    19:00 +27°C° 0 mm 2 mps 749 mmHg 34%
    20:00 +25°C° 0 mm 1 mps 750 mmHg 36%
    21:00 +25°C° 0 mm 2 mps 750 mmHg 40%
    22:00 +24°C° 0 mm 2 mps 750 mmHg 43%
    23:00 +23°C° 0 mm 2 mps 750 mmHg 46%

    28 Octubre, Lunes

    Tiempo Temperatura Precipitaciones Viento Presión Humedad
    00:00 +23°C° 0 mm 1 mps 750 mmHg 49%
    01:00 +22°C° 0 mm 1 mps 750 mmHg 52%
    02:00 +22°C° 0 mm 1 mps 750 mmHg 55%
    03:00 +21°C° 0 mm 1 mps 750 mmHg 57%
    04:00 +21°C° 0 mm 1 mps 750 mmHg 58%
    05:00 +19°C° 0 mm 2 mps 750 mmHg 60%
    06:00 +21°C° 0 mm 2 mps 750 mmHg 54%
    07:00 +23°C° 0 mm 2 mps 751 mmHg 49%
    08:00 +25°C° 0 mm 2 mps 751 mmHg 43%
    09:00 +27°C° 0 mm 2 mps 751 mmHg 38%
    10:00 +29°C° 0 mm 2 mps 751 mmHg 32%
    11:00 +31°C° 0 mm 2 mps 751 mmHg 27%
    12:00 +32°C° 0 mm 2 mps 750 mmHg 24%
    13:00 +34°C° 0 mm 2 mps 750 mmHg 21%
    14:00 +35°C° 0 mm 3 mps 749 mmHg 18%
    15:00 +32°C° 0 mm 2 mps 749 mmHg 19%
    16:00 +31°C° 0 mm 2 mps 749 mmHg 20%
    17:00 +29°C° 0 mm 2 mps 749 mmHg 21%
    18:00 +28°C° 0 mm 2 mps 749 mmHg 23%
    19:00 +27°C° 0 mm 3 mps 750 mmHg 24%
    20:00 +26°C° 0 mm 4 mps 750 mmHg 26%
    21:00 +25°C° 0 mm 3 mps 750 mmHg 29%
    22:00 +24°C° 0 mm 2 mps 750 mmHg 33%
    23:00 +23°C° 0 mm 1 mps 750 mmHg 36%
    Mostrar más